,,,PA_Meas_PMT16A,,PR_Meas_QMR101_102,,RH_Meas_QMH101,,SR_Meas_QMS101,,TA_Meas_QMH101,,GenWind,,GenWind,
date,time,status,PA,status,PR,status,RH,status,SR,status,TA,status,DirAvg,status,SpdAvg,
2010-01-18, 00:00:04,VALID,1001.52,VALID,0,VALID,91.9369,VALID,0,VALID,24.4037,VALID,63,VALID,0,
2010-01-18, 00:01:04,VALID,1001.52,VALID,0,VALID,91.998,VALID,0,VALID,24.4037,VALID,63,VALID,0,
2010-01-18, 00:02:04,VALID,1001.54,VALID,0,VALID,92.0514,VALID,0,VALID,24.4037,VALID,63,VALID,0,
2010-01-18, 00:03:04,VALID,1001.52,VALID,0,VALID,92.0666,VALID,0,VALID,24.4233,VALID,127,VALID,0.315625,
2010-01-18, 00:04:04,VALID,1001.49,VALID,0,VALID,92.1277,VALID,0,VALID,24.4428,VALID,167,VALID,0.0363281,
2010-01-18, 00:05:04,VALID,1001.49,VALID,0,VALID,92.1658,VALID,0,VALID,24.4818,VALID,167,VALID,0.216406,
2010-01-18, 00:06:04,VALID,1001.47,VALID,0,VALID,92.1658,VALID,0,VALID,24.4818,VALID,167,VALID,0.555859,
2010-01-18, 00:07:04,VALID,1001.49,VALID,0,VALID,92.12,VALID,0,VALID,24.4818,VALID,167,VALID,0.549609,
2010-01-18, 00:08:04,VALID,1001.49,VALID,0,VALID,92.059,VALID,0,VALID,24.5209,VALID,167,VALID,0.325,
2010-01-18, 00:09:04,VALID,1001.46,VALID,0,VALID,91.9903,VALID,0,VALID,24.5404,VALID,174,VALID,0.966016,
2010-01-18, 00:10:04,VALID,1001.46,VALID,0,VALID,91.8606,VALID,0,VALID,24.5794,VALID,174,VALID,0.634766,
2010-01-18, 00:11:04,VALID,1001.42,VALID,0,VALID,91.7157,VALID,0,VALID,24.5989,VALID,148,VALID,0.622266,
2010-01-18, 00:12:04,VALID,1001.43,VALID,0,VALID,91.5402,VALID,0,VALID,24.638,VALID,146,VALID,0.870703,
2010-01-18, 00:13:04,VALID,1001.41,VALID,0,VALID,91.4028,VALID,0,VALID,24.638,VALID,145,VALID,0.858984,
2010-01-18, 00:14:04,VALID,1001.4,VALID,0,VALID,91.296,VALID,0,VALID,24.638,VALID,141,VALID,0.814844,
2010-01-18, 00:15:04,VALID,1001.36,VALID,0,VALID,91.2121,VALID,0,VALID,24.6789,VALID,141,VALID,0.953906,
2010-01-18, 00:16:04,VALID,1001.34,VALID,0,VALID,91.1358,VALID,0,VALID,24.677,VALID,139,VALID,0.820703,
2010-01-18, 00:17:04,VALID,1001.38,VALID,0,VALID,91.0977,VALID,0,VALID,24.677,VALID,139,VALID,0.812891,
2010-01-18, 00:18:04,VALID,1001.35,VALID,0,VALID,91.0748,VALID,0,VALID,24.677,VALID,139,VALID,0.707422,
2010-01-18, 00:19:04,VALID,1001.34,VALID,0,VALID,91.0595,VALID,0,VALID,24.677,VALID,139,VALID,0.724609,
2010-01-18, 00:20:04,VALID,1001.3,VALID,0,VALID,91.0137,VALID,0,VALID,24.6361,VALID,139,VALID,0.630078,
2010-01-18, 00:21:04,VALID,1001.29,VALID,0,VALID,91.0137,VALID,0,VALID,24.638,VALID,140,VALID,1.13281,
2010-01-18, 00:22:04,VALID,1001.31,VALID,0,VALID,90.9832,VALID,0,VALID,24.6575,VALID,140,VALID,0.818359,
2010-01-18, 00:23:04,VALID,1001.27,VALID,0,VALID,91.029,VALID,0,VALID,24.6575,VALID,145,VALID,0.767187,
2010-01-18, 00:24:04,VALID,1001.28,VALID,0,VALID,91.09,VALID,0,VALID,24.638,VALID,145,VALID,0.676562,
2010-01-18, 00:25:04,VALID,1001.31,VALID,0,VALID,91.0977,VALID,0,VALID,24.6184,VALID,145,VALID,0.394531,
2010-01-18, 00:26:04,VALID,1001.27,VALID,0,VALID,91.174,VALID,0,VALID,24.5989,VALID,145,VALID,0.284375,
2010-01-18, 00:27:04,VALID,1001.27,VALID,0,VALID,91.2121,VALID,0,VALID,24.6008,VALID,139,VALID,0.0367187,
2010-01-18, 00:28:04,VALID,1001.24,VALID,0,VALID,91.2503,VALID,0,VALID,24.5794,VALID,133,VALID,0,
2010-01-18, 00:29:04,VALID,1001.23,VALID,0,VALID,91.296,VALID,0,VALID,24.5813,VALID,133,VALID,0,
2010-01-18, 00:30:04,VALID,1001.26,VALID,0,VALID,91.3494,VALID,0,VALID,24.5404,VALID,130,VALID,0,
2010-01-18, 00:31:04,VALID,1001.19,VALID,0,VALID,91.3418,VALID,0,VALID,24.5404,VALID,130,VALID,0,
2010-01-18, 00:32:04,VALID,1001.23,VALID,0,VALID,91.38,VALID,0,VALID,24.5209,VALID,130,VALID,0,
2010-01-18, 00:33:04,VALID,1001.19,VALID,0,VALID,91.4257,VALID,0,VALID,24.5209,VALID,130,VALID,0,
2010-01-18, 00:34:04,VALID,1001.19,VALID,0,VALID,91.5249,VALID,0,VALID,24.5013,VALID,130,VALID,0,
2010-01-18, 00:35:04,VALID,1001.17,VALID,0,VALID,91.5554,VALID,0,VALID,24.5209,VALID,130,VALID,0,
2010-01-18, 00:36:04,VALID,1001.17,VALID,0,VALID,91.5783,VALID,0,VALID,24.5013,VALID,130,VALID,0,
2010-01-18, 00:37:04,VALID,1001.19,VALID,0,VALID,91.5783,VALID,0,VALID,24.5013,VALID,130,VALID,0,
2010-01-18, 00:38:04,VALID,1001.18,VALID,0,VALID,91.5707,VALID,0,VALID,24.5422,VALID,130,VALID,0,
2010-01-18, 00:39:04,VALID,1001.18,VALID,0,VALID,91.5249,VALID,0,VALID,24.5013,VALID,130,VALID,0,
2010-01-18, 00:40:04,VALID,1001.17,VALID,0,VALID,91.4486,VALID,0,VALID,24.4818,VALID,130,VALID,0,
2010-01-18, 00:41:04,VALID,1001.15,VALID,0,VALID,91.441,VALID,0,VALID,24.5013,VALID,130,VALID,0,
2010-01-18, 00:42:04,VALID,1001.12,VALID,0,VALID,91.4563,VALID,0,VALID,24.4818,VALID,130,VALID,0,
2010-01-18, 00:43:04,VALID,1001.12,VALID,0,VALID,91.4257,VALID,0,VALID,24.4623,VALID,130,VALID,0,
2010-01-18, 00:44:04,VALID,1001.11,VALID,0,VALID,91.4639,VALID,0,VALID,24.4428,VALID,130,VALID,0,
2010-01-18, 00:45:04,VALID,1001.07,VALID,0,VALID,91.5936,VALID,0,VALID,24.4428,VALID,82,VALID,0,
2010-01-18, 00:46:04,VALID,1001.07,VALID,0,VALID,91.7309,VALID,0,VALID,24.4428,VALID,74,VALID,0,
2010-01-18, 00:47:04,VALID,1001.06,VALID,0,VALID,91.7767,VALID,0,VALID,24.4428,VALID,74,VALID,0,
2010-01-18, 00:48:04,VALID,1001.03,VALID,0,VALID,91.7767,VALID,0,VALID,24.4428,VALID,74,VALID,0,
2010-01-18, 00:49:04,VALID,1001.01,VALID,0,VALID,91.8072,VALID,0,VALID,24.4428,VALID,74,VALID,0,
2010-01-18, 00:50:04,VALID,1000.99,VALID,0,VALID,91.7996,VALID,0,VALID,24.4233,VALID,74,VALID,0,
2010-01-18, 00:51:04,VALID,1000.99,VALID,0,VALID,91.8606,VALID,0,VALID,24.3824,VALID,74,VALID,0,
2010-01-18, 00:52:04,VALID,1000.96,VALID,0,VALID,91.9217,VALID,0,VALID,24.4037,VALID,74,VALID,0,
2010-01-18, 00:53:04,VALID,1000.93,VALID,0,VALID,91.998,VALID,0,VALID,24.4037,VALID,74,VALID,0,
2010-01-18, 00:54:04,VALID,1000.92,VALID,0,VALID,92.0666,VALID,0,VALID,24.3842,VALID,74,VALID,0,
2010-01-18, 00:55:04,VALID,1000.91,VALID,0,VALID,92.1048,VALID,0,VALID,24.4251,VALID,74,VALID,0,
2010-01-18, 00:56:04,VALID,1000.86,VALID,0,VALID,92.1124,VALID,0,VALID,24.3842,VALID,74,VALID,0,
2010-01-18, 00:57:04,VALID,1000.87,VALID,0,VALID,92.0971,VALID,0,VALID,24.3842,VALID,74,VALID,0,
2010-01-18, 00:58:04,VALID,1000.83,VALID,0,VALID,92.1277,VALID,0,VALID,24.3842,VALID,74,VALID,0,
2010-01-18, 00:59:04,VALID,1000.84,VALID,0,VALID,92.1734,VALID,0,VALID,24.3842,VALID,74,VALID,0,
2010-01-18, 01:00:04,VALID,1000.82,VALID,0,VALID,92.1734,VALID,0,VALID,24.3842,VALID,74,VALID,0,
2010-01-18, 01:01:04,VALID,1000.79,VALID,0,VALID,92.1734,VALID,0,VALID,24.3842,VALID,74,VALID,0,
2010-01-18, 01:02:04,VALID,1000.82,VALID,0,VALID,92.1734,VALID,0,VALID,24.4037,VALID,74,VALID,0,
2010-01-18, 01:03:04,VALID,1000.81,VALID,0,VALID,92.1734,VALID,0,VALID,24.3842,VALID,74,VALID,0,
2010-01-18, 01:04:04,VALID,1000.82,VALID,0,VALID,92.1734,VALID,0,VALID,24.3842,VALID,74,VALID,0,
2010-01-18, 01:05:04,VALID,1000.82,VALID,0,VALID,92.1734,VALID,0,VALID,24.3842,VALID,74,VALID,0,
2010-01-18, 01:06:04,VALID,1000.83,VALID,0,VALID,92.1429,VALID,0,VALID,24.3452,VALID,74,VALID,0,
2010-01-18, 01:07:04,VALID,1000.82,VALID,0,VALID,92.1429,VALID,0,VALID,24.3452,VALID,74,VALID,0,
2010-01-18, 01:08:04,VALID,1000.85,VALID,0,VALID,92.1048,VALID,0,VALID,24.3062,VALID,74,VALID,0,
2010-01-18, 01:09:04,VALID,1000.84,VALID,0,VALID,92.1506,VALID,0,VALID,24.2866,VALID,74,VALID,0,
2010-01-18, 01:10:04,VALID,1000.87,VALID,0,VALID,92.2497,VALID,0,VALID,24.2866,VALID,74,VALID,0,
2010-01-18, 01:11:04,VALID,1000.85,VALID,0,VALID,92.2879,VALID,0,VALID,24.2671,VALID,74,VALID,0,
2010-01-18, 01:12:04,VALID,1000.87,VALID,0,VALID,92.2345,VALID,0,VALID,24.2281,VALID,74,VALID,0,
2010-01-18, 01:13:04,VALID,1000.86,VALID,0,VALID,92.3947,VALID,0,VALID,24.2086,VALID,74,VALID,0,
2010-01-18, 01:14:04,VALID,1000.86,VALID,0,VALID,92.5015,VALID,0,VALID,24.2281,VALID,74,VALID,0,
2010-01-18, 01:15:04,VALID,1000.84,VALID,0,VALID,92.4863,VALID,0,VALID,24.1677,VALID,74,VALID,0,
2010-01-18, 01:16:04,VALID,1000.85,VALID,0,VALID,92.5931,VALID,0,VALID,24.1891,VALID,74,VALID,0,
2010-01-18, 01:17:04,VALID,1000.81,VALID,0,VALID,92.6388,VALID,0,VALID,24.1696,VALID,60,VALID,0,
2010-01-18, 01:18:04,VALID,1000.81,VALID,0,VALID,92.7151,VALID,0,VALID,24.1696,VALID,32,VALID,0,
2010-01-18, 01:19:04,VALID,1000.81,VALID,0,VALID,92.8067,VALID,0,VALID,24.1482,VALID,32,VALID,0,
2010-01-18, 01:20:04,VALID,1000.81,VALID,0,VALID,92.8067,VALID,0,VALID,24.15,VALID,32,VALID,0,
2010-01-18, 01:21:04,VALID,1000.8,VALID,0,VALID,92.883,VALID,0,VALID,24.1482,VALID,32,VALID,0,
2010-01-18, 01:22:04,VALID,1000.79,VALID,0,VALID,92.8677,VALID,0,VALID,24.1287,VALID,32,VALID,0,
2010-01-18, 01:23:04,VALID,1000.78,VALID,0,VALID,92.8525,VALID,0,VALID,24.1092,VALID,32,VALID,0,
2010-01-18, 01:24:04,VALID,1000.79,VALID,0,VALID,92.883,VALID,0,VALID,24.111,VALID,32,VALID,0,
2010-01-18, 01:25:04,VALID,1000.77,VALID,0,VALID,92.944,VALID,0,VALID,24.111,VALID,26,VALID,0,
2010-01-18, 01:26:04,VALID,1000.79,VALID,0,VALID,92.9593,VALID,0,VALID,24.0915,VALID,18,VALID,0.053125,
2010-01-18, 01:27:04,VALID,1000.76,VALID,0,VALID,92.9211,VALID,0,VALID,24.072,VALID,9,VALID,0.801562,
2010-01-18, 01:28:04,VALID,1000.75,VALID,0,VALID,92.8906,VALID,0,VALID,24.0525,VALID,9,VALID,0.633203,
2010-01-18, 01:29:04,VALID,1000.75,VALID,0,VALID,92.8754,VALID,0,VALID,24.0329,VALID,9,VALID,0.517578,
2010-01-18, 01:30:04,VALID,1000.72,VALID,0,VALID,92.8906,VALID,0,VALID,24.0134,VALID,9,VALID,0.330859,
2010-01-18, 01:31:04,VALID,1000.7,VALID,0,VALID,92.944,VALID,0,VALID,23.9726,VALID,9,VALID,0.228516,
2010-01-18, 01:32:04,VALID,1000.69,VALID,0,VALID,92.9593,VALID,0,VALID,23.9726,VALID,9,VALID,0.300781,
2010-01-18, 01:33:04,VALID,1000.69,VALID,0,VALID,92.9745,VALID,0,VALID,23.9939,VALID,9,VALID,0.505469,
2010-01-18, 01:34:04,VALID,1000.66,VALID,0,VALID,93.0051,VALID,0,VALID,23.9939,VALID,9,VALID,0.6375,
2010-01-18, 01:35:04,VALID,1000.65,VALID,0,VALID,93.0356,VALID,0,VALID,23.9939,VALID,10,VALID,0.572656,
2010-01-18, 01:36:04,VALID,1000.67,VALID,0,VALID,92.9974,VALID,0,VALID,23.9744,VALID,10,VALID,0.499609,
2010-01-18, 01:37:04,VALID,1000.67,VALID,0,VALID,92.9517,VALID,0,VALID,23.9549,VALID,10,VALID,0.395312,
2010-01-18, 01:38:04,VALID,1000.64,VALID,0,VALID,92.9517,VALID,0,VALID,23.9549,VALID,10,VALID,0.599219,
2010-01-18, 01:39:04,VALID,1000.65,VALID,0,VALID,92.9898,VALID,0,VALID,23.9549,VALID,10,VALID,0.58125,
2010-01-18, 01:40:04,VALID,1000.68,VALID,0,VALID,92.9745,VALID,0,VALID,23.9354,VALID,10,VALID,0.535547,
2010-01-18, 01:41:04,VALID,1000.69,VALID,0,VALID,92.9745,VALID,0,VALID,23.9354,VALID,23,VALID,0.773438,
2010-01-18, 01:42:04,VALID,1000.72,VALID,0,VALID,92.9135,VALID,0,VALID,23.9159,VALID,22,VALID,1.12734,
2010-01-18, 01:43:04,VALID,1000.74,VALID,0,VALID,92.9288,VALID,0,VALID,23.875,VALID,18,VALID,1.11172,
2010-01-18, 01:44:04,VALID,1000.73,VALID,0,VALID,92.9211,VALID,0,VALID,23.8768,VALID,18,VALID,0.974219,
2010-01-18, 01:45:04,VALID,1000.75,VALID,0,VALID,92.9288,VALID,0,VALID,23.8555,VALID,19,VALID,0.803906,
2010-01-18, 01:46:04,VALID,1000.76,VALID,0,VALID,92.9211,VALID,0,VALID,23.836,VALID,19,VALID,0.666797,
2010-01-18, 01:47:04,VALID,1000.78,VALID,0,VALID,92.944,VALID,0,VALID,23.8183,VALID,19,VALID,0.582422,
2010-01-18, 01:48:04,VALID,1000.79,VALID,0,VALID,92.9822,VALID,0,VALID,23.797,VALID,19,VALID,0.588281,
2010-01-18, 01:49:04,VALID,1000.79,VALID,0,VALID,92.9974,VALID,0,VALID,23.8183,VALID,19,VALID,0.528906,
2010-01-18, 01:50:04,VALID,1000.8,VALID,0,VALID,93.0356,VALID,0,VALID,23.7775,VALID,19,VALID,0.498828,
2010-01-18, 01:51:04,VALID,1000.81,VALID,0,VALID,93.0585,VALID,0,VALID,23.7775,VALID,20,VALID,0.550391,
2010-01-18, 01:52:04,VALID,1000.77,VALID,0,VALID,93.0814,VALID,0,VALID,23.7988,VALID,23,VALID,0.508984,
2010-01-18, 01:53:04,VALID,1000.75,VALID,0,VALID,93.089,VALID,0,VALID,23.8201,VALID,26,VALID,0.223047,
2010-01-18, 01:54:04,VALID,1000.78,VALID,0,VALID,93.089,VALID,0,VALID,23.7793,VALID,26,VALID,0.298828,
2010-01-18, 01:55:04,VALID,1000.75,VALID,0,VALID,93.1119,VALID,0,VALID,23.7579,VALID,26,VALID,0.334766,
2010-01-18, 01:56:04,VALID,1000.76,VALID,0,VALID,93.1043,VALID,0,VALID,23.7579,VALID,26,VALID,0,
2010-01-18, 01:57:04,VALID,1000.72,VALID,0,VALID,93.1424,VALID,0,VALID,23.7579,VALID,26,VALID,0,
2010-01-18, 01:58:04,VALID,1000.72,VALID,0,VALID,93.1424,VALID,0,VALID,23.7988,VALID,26,VALID,0,
2010-01-18, 01:59:04,VALID,1000.69,VALID,0,VALID,93.15,VALID,0,VALID,23.7597,VALID,26,VALID,0,
2010-01-18, 02:00:04,VALID,1000.67,VALID,0,VALID,93.1729,VALID,0,VALID,23.7579,VALID,26,VALID,0,
2010-01-18, 02:01:04,VALID,1000.68,VALID,0,VALID,93.2492,VALID,0,VALID,23.7775,VALID,26,VALID,0,
2010-01-18, 02:02:04,VALID,1000.62,VALID,0,VALID,93.2874,VALID,0,VALID,23.797,VALID,26,VALID,0,
2010-01-18, 02:03:04,VALID,1000.65,VALID,0,VALID,93.2568,VALID,0,VALID,23.8378,VALID,26,VALID,0,
2010-01-18, 02:04:04,VALID,1000.62,VALID,0,VALID,93.3026,VALID,0,VALID,23.8378,VALID,59,VALID,0.460547,
2010-01-18, 02:05:04,VALID,1000.63,VALID,0,VALID,93.3637,VALID,0,VALID,23.8768,VALID,69,VALID,0.574219,
2010-01-18, 02:06:04,VALID,1000.58,VALID,0,VALID,93.356,VALID,0,VALID,23.8963,VALID,69,VALID,0.523828,
2010-01-18, 02:07:04,VALID,1000.59,VALID,0,VALID,93.3637,VALID,0,VALID,23.8963,VALID,79,VALID,0.655859,
2010-01-18, 02:08:04,VALID,1000.57,VALID,0,VALID,93.3484,VALID,0,VALID,23.9159,VALID,85,VALID,0.727734,
2010-01-18, 02:09:04,VALID,1000.56,VALID,0,VALID,93.3789,VALID,0,VALID,23.9354,VALID,91,VALID,0.804297,
2010-01-18, 02:10:04,VALID,1000.6,VALID,0,VALID,93.3713,VALID,0,VALID,23.9549,VALID,97,VALID,0.857422,
2010-01-18, 02:11:04,VALID,1000.61,VALID,0,VALID,93.3408,VALID,0,VALID,23.9744,VALID,105,VALID,0.713672,
2010-01-18, 02:12:04,VALID,1000.59,VALID,0,VALID,93.3484,VALID,0,VALID,23.9744,VALID,111,VALID,0.717188,
2010-01-18, 02:13:04,VALID,1000.64,VALID,0,VALID,93.3255,VALID,0,VALID,23.9549,VALID,113,VALID,0.684766,
2010-01-18, 02:14:04,VALID,1000.66,VALID,0,VALID,93.2874,VALID,0,VALID,23.9939,VALID,120,VALID,0.776172,
2010-01-18, 02:15:04,VALID,1000.68,VALID,0,VALID,93.3103,VALID,0,VALID,23.9744,VALID,118,VALID,0.657031,
2010-01-18, 02:16:04,VALID,1000.7,VALID,0,VALID,93.3255,VALID,0,VALID,23.9939,VALID,118,VALID,0.66875,
2010-01-18, 02:17:04,VALID,1000.69,VALID,0,VALID,93.356,VALID,0,VALID,24.0329,VALID,113,VALID,0.966406,
2010-01-18, 02:18:04,VALID,1000.69,VALID,0,VALID,93.3408,VALID,0,VALID,24.0329,VALID,111,VALID,0.601953,
2010-01-18, 02:19:04,VALID,1000.72,VALID,0,VALID,93.3713,VALID,0,VALID,24.0329,VALID,108,VALID,0.561719,
2010-01-18, 02:20:04,VALID,1000.71,VALID,0,VALID,93.3408,VALID,0,VALID,24.072,VALID,101,VALID,0.278516,
2010-01-18, 02:21:04,VALID,1000.68,VALID,0,VALID,93.3179,VALID,0,VALID,24.072,VALID,96,VALID,0.133203,
2010-01-18, 02:22:04,VALID,1000.69,VALID,0,VALID,93.3179,VALID,0,VALID,24.0525,VALID,93,VALID,0,
2010-01-18, 02:23:04,VALID,1000.67,VALID,0,VALID,93.295,VALID,0,VALID,24.072,VALID,93,VALID,0,
2010-01-18, 02:24:04,VALID,1000.68,VALID,0,VALID,93.2721,VALID,0,VALID,24.072,VALID,93,VALID,0,
2010-01-18, 02:25:04,VALID,1000.66,VALID,0,VALID,93.2492,VALID,0,VALID,24.0525,VALID,93,VALID,0,
2010-01-18, 02:26:04,VALID,1000.66,VALID,0,VALID,93.2263,VALID,0,VALID,24.0329,VALID,93,VALID,0,
2010-01-18, 02:27:04,VALID,1000.69,VALID,0,VALID,93.2187,VALID,0,VALID,24.0116,VALID,93,VALID,0,
2010-01-18, 02:28:04,VALID,1000.66,VALID,0,VALID,93.1958,VALID,0,VALID,24.0329,VALID,93,VALID,0,
2010-01-18, 02:29:04,VALID,1000.67,VALID,0,VALID,93.1653,VALID,0,VALID,24.0134,VALID,93,VALID,0,
2010-01-18, 02:30:04,VALID,1000.61,VALID,0,VALID,93.1653,VALID,0,VALID,24.0134,VALID,93,VALID,0,
2010-01-18, 02:31:04,VALID,1000.61,VALID,0,VALID,93.1271,VALID,0,VALID,24.0134,VALID,93,VALID,0,
2010-01-18, 02:32:04,VALID,1000.62,VALID,0,VALID,93.1043,VALID,0,VALID,24.0329,VALID,93,VALID,0,
2010-01-18, 02:33:04,VALID,1000.63,VALID,0,VALID,93.1271,VALID,0,VALID,24.0329,VALID,93,VALID,0,
2010-01-18, 02:34:04,VALID,1000.65,VALID,0,VALID,93.0966,VALID,0,VALID,24.0134,VALID,93,VALID,0,
2010-01-18, 02:35:04,VALID,1000.65,VALID,0,VALID,93.0814,VALID,0,VALID,24.0329,VALID,93,VALID,0,
2010-01-18, 02:36:04,VALID,1000.65,VALID,0,VALID,93.0661,VALID,0,VALID,23.9921,VALID,93,VALID,0,
2010-01-18, 02:37:04,VALID,1000.67,VALID,0,VALID,93.0966,VALID,0,VALID,24.0329,VALID,93,VALID,0,
2010-01-18, 02:38:04,VALID,1000.66,VALID,0,VALID,93.0737,VALID,0,VALID,24.0329,VALID,93,VALID,0,
2010-01-18, 02:39:04,VALID,1000.68,VALID,0,VALID,93.0661,VALID,0,VALID,24.0329,VALID,93,VALID,0,
2010-01-18, 02:40:04,VALID,1000.68,VALID,0,VALID,93.0432,VALID,0,VALID,24.0134,VALID,93,VALID,0,
2010-01-18, 02:41:04,VALID,1000.73,VALID,0,VALID,93.0356,VALID,0,VALID,23.9939,VALID,93,VALID,0,
2010-01-18, 02:42:04,VALID,1000.7,VALID,0,VALID,93.0585,VALID,0,VALID,23.9726,VALID,93,VALID,0,
2010-01-18, 02:43:04,VALID,1000.73,VALID,0,VALID,93.0585,VALID,0,VALID,23.9921,VALID,93,VALID,0,
2010-01-18, 02:44:04,VALID,1000.74,VALID,0,VALID,93.0814,VALID,0,VALID,24.0134,VALID,93,VALID,0,
2010-01-18, 02:45:04,VALID,1000.75,VALID,0,VALID,93.089,VALID,0,VALID,24.0134,VALID,93,VALID,0,
2010-01-18, 02:46:04,VALID,1000.77,VALID,0,VALID,93.1043,VALID,0,VALID,24.0134,VALID,93,VALID,0,
2010-01-18, 02:47:04,VALID,1000.78,VALID,0,VALID,93.1424,VALID,0,VALID,24.0134,VALID,93,VALID,0,
2010-01-18, 02:48:04,VALID,1000.77,VALID,0,VALID,93.1729,VALID,0,VALID,24.0329,VALID,93,VALID,0,
2010-01-18, 02:49:04,VALID,1000.8,VALID,0,VALID,93.1424,VALID,0,VALID,24.0329,VALID,93,VALID,0,
2010-01-18, 02:50:04,VALID,1000.79,VALID,0,VALID,93.1729,VALID,0,VALID,24.0525,VALID,93,VALID,0,
2010-01-18, 02:51:04,VALID,1000.79,VALID,0,VALID,93.1729,VALID,0,VALID,24.0525,VALID,93,VALID,0,
2010-01-18, 02:52:04,VALID,1000.81,VALID,0,VALID,93.1805,VALID,0,VALID,24.072,VALID,93,VALID,0,
2010-01-18, 02:53:04,VALID,1000.8,VALID,0,VALID,93.1729,VALID,0,VALID,24.0915,VALID,93,VALID,0,
2010-01-18, 02:54:04,VALID,1000.79,VALID,0,VALID,93.1958,VALID,0,VALID,24.0915,VALID,103,VALID,0,
2010-01-18, 02:55:04,VALID,1000.83,VALID,0,VALID,93.1577,VALID,0,VALID,24.111,VALID,103,VALID,0,
2010-01-18, 02:56:04,VALID,1000.83,VALID,0,VALID,93.1729,VALID,0,VALID,24.1305,VALID,103,VALID,0,
2010-01-18, 02:57:04,VALID,1000.85,VALID,0,VALID,93.1271,VALID,0,VALID,24.1305,VALID,103,VALID,0,
2010-01-18, 02:58:04,VALID,1000.89,VALID,0,VALID,93.1195,VALID,0,VALID,24.1092,VALID,103,VALID,0,
2010-01-18, 02:59:04,VALID,1000.87,VALID,0,VALID,93.0737,VALID,0,VALID,24.1305,VALID,103,VALID,0,
2010-01-18, 03:00:04,VALID,1000.87,VALID,0,VALID,93.0737,VALID,0,VALID,24.1305,VALID,103,VALID,0,
2010-01-18, 03:01:04,VALID,1000.9,VALID,0,VALID,93.089,VALID,0,VALID,24.1714,VALID,103,VALID,0,
2010-01-18, 03:02:04,VALID,1000.92,VALID,0,VALID,93.0661,VALID,0,VALID,24.1696,VALID,103,VALID,0,
2010-01-18, 03:03:04,VALID,1000.92,VALID,0,VALID,93.0508,VALID,0,VALID,24.1696,VALID,103,VALID,0,
2010-01-18, 03:04:04,VALID,1000.93,VALID,0,VALID,93.0432,VALID,0,VALID,24.1891,VALID,130,VALID,0,
2010-01-18, 03:05:04,VALID,1000.94,VALID,0,VALID,93.0203,VALID,0,VALID,24.1891,VALID,142,VALID,0,
2010-01-18, 03:06:04,VALID,1000.93,VALID,0,VALID,92.9669,VALID,0,VALID,24.2086,VALID,143,VALID,0,
2010-01-18, 03:07:04,VALID,1000.93,VALID,0,VALID,92.9211,VALID,0,VALID,24.2086,VALID,143,VALID,0,
2010-01-18, 03:08:04,VALID,1000.94,VALID,0,VALID,92.883,VALID,0,VALID,24.2281,VALID,143,VALID,0,
2010-01-18, 03:09:04,VALID,1000.94,VALID,0,VALID,92.8372,VALID,0,VALID,24.2086,VALID,147,VALID,0,
2010-01-18, 03:10:04,VALID,1000.95,VALID,0,VALID,92.822,VALID,0,VALID,24.2281,VALID,147,VALID,0,
2010-01-18, 03:11:04,VALID,1000.98,VALID,0,VALID,92.7533,VALID,0,VALID,24.2281,VALID,151,VALID,0,
2010-01-18, 03:12:04,VALID,1000.97,VALID,0,VALID,92.7304,VALID,0,VALID,24.2281,VALID,151,VALID,0,
2010-01-18, 03:13:04,VALID,1000.94,VALID,0,VALID,92.677,VALID,0,VALID,24.2476,VALID,151,VALID,0,
2010-01-18, 03:14:04,VALID,1000.93,VALID,0,VALID,92.6312,VALID,0,VALID,24.2476,VALID,151,VALID,0,
2010-01-18, 03:15:04,VALID,1000.93,VALID,0,VALID,92.5854,VALID,0,VALID,24.2671,VALID,152,VALID,0,
2010-01-18, 03:16:04,VALID,1000.96,VALID,0,VALID,92.532,VALID,0,VALID,24.2866,VALID,153,VALID,0,
2010-01-18, 03:17:04,VALID,1000.96,VALID,0,VALID,92.4786,VALID,0,VALID,24.3062,VALID,153,VALID,0,
2010-01-18, 03:18:04,VALID,1001,VALID,0,VALID,92.4176,VALID,0,VALID,24.3062,VALID,153,VALID,0,
2010-01-18, 03:19:04,VALID,1000.98,VALID,0,VALID,92.3489,VALID,0,VALID,24.3257,VALID,153,VALID,0,
2010-01-18, 03:20:04,VALID,1001,VALID,0,VALID,92.2879,VALID,0,VALID,24.3257,VALID,153,VALID,0,
2010-01-18, 03:21:04,VALID,1001.01,VALID,0,VALID,92.265,VALID,0,VALID,24.3257,VALID,153,VALID,0,
2010-01-18, 03:22:04,VALID,1001.06,VALID,0,VALID,92.204,VALID,0,VALID,24.3257,VALID,153,VALID,0,
2010-01-18, 03:23:04,VALID,1001.06,VALID,0,VALID,92.1277,VALID,0,VALID,24.3666,VALID,153,VALID,0,
2010-01-18, 03:24:04,VALID,1001.08,VALID,0,VALID,92.0895,VALID,0,VALID,24.3452,VALID,153,VALID,0,
2010-01-18, 03:25:04,VALID,1001.09,VALID,0,VALID,92.0437,VALID,0,VALID,24.3257,VALID,153,VALID,0,
2010-01-18, 03:26:04,VALID,1001.07,VALID,0,VALID,92.0437,VALID,0,VALID,24.3452,VALID,153,VALID,0,
2010-01-18, 03:27:04,VALID,1001.11,VALID,0,VALID,92.0209,VALID,0,VALID,24.3257,VALID,153,VALID,0,
2010-01-18, 03:28:04,VALID,1001.07,VALID,0,VALID,91.998,VALID,0,VALID,24.3452,VALID,153,VALID,0,
2010-01-18, 03:29:04,VALID,1001.11,VALID,0,VALID,91.9522,VALID,0,VALID,24.3452,VALID,150,VALID,0.839844,
2010-01-18, 03:30:04,VALID,1001.11,VALID,0,VALID,91.9217,VALID,0,VALID,24.3452,VALID,148,VALID,0.507813,
2010-01-18, 03:31:04,VALID,1001.12,VALID,0,VALID,91.8835,VALID,0,VALID,24.3452,VALID,148,VALID,0.632813,
2010-01-18, 03:32:04,VALID,1001.11,VALID,0,VALID,91.853,VALID,0,VALID,24.3452,VALID,148,VALID,0.406641,
2010-01-18, 03:33:04,VALID,1001.13,VALID,0,VALID,91.8683,VALID,0,VALID,24.3647,VALID,148,VALID,0.56875,
2010-01-18, 03:34:04,VALID,1001.14,VALID,0,VALID,91.8835,VALID,0,VALID,24.3647,VALID,148,VALID,0.523047,
2010-01-18, 03:35:04,VALID,1001.11,VALID,0,VALID,91.8759,VALID,0,VALID,24.3452,VALID,148,VALID,0.636328,
2010-01-18, 03:36:04,VALID,1001.14,VALID,0,VALID,91.8835,VALID,0,VALID,24.3861,VALID,149,VALID,0.38125,
2010-01-18, 03:37:04,VALID,1001.15,VALID,0,VALID,91.8835,VALID,0,VALID,24.3452,VALID,149,VALID,0.463281,
2010-01-18, 03:38:04,VALID,1001.13,VALID,0,VALID,91.8759,VALID,0,VALID,24.3842,VALID,149,VALID,0.429297,
2010-01-18, 03:39:04,VALID,1001.12,VALID,0,VALID,91.8606,VALID,0,VALID,24.3647,VALID,149,VALID,0.317578,
2010-01-18, 03:40:04,VALID,1001.12,VALID,0,VALID,91.8225,VALID,0,VALID,24.3647,VALID,149,VALID,0.0707031,
2010-01-18, 03:41:04,VALID,1001.15,VALID,0,VALID,91.8454,VALID,0,VALID,24.3452,VALID,149,VALID,0.112109,
2010-01-18, 03:42:04,VALID,1001.13,VALID,0,VALID,91.8606,VALID,0,VALID,24.3452,VALID,147,VALID,0.335938,
2010-01-18, 03:43:04,VALID,1001.11,VALID,0,VALID,91.8301,VALID,0,VALID,24.3452,VALID,147,VALID,0.0824219,
2010-01-18, 03:44:04,VALID,1001.15,VALID,0,VALID,91.8301,VALID,0,VALID,24.3452,VALID,145,VALID,0.189453,
2010-01-18, 03:45:04,VALID,1001.11,VALID,0,VALID,91.7996,VALID,0,VALID,24.3452,VALID,73,VALID,0.541406,
2010-01-18, 03:46:04,VALID,1001.14,VALID,0,VALID,91.7385,VALID,0,VALID,24.3257,VALID,26,VALID,0.996094,
2010-01-18, 03:47:04,VALID,1001.15,VALID,0,VALID,91.7614,VALID,0,VALID,24.2866,VALID,21,VALID,0.907812,
2010-01-18, 03:48:04,VALID,1001.14,VALID,0,VALID,91.792,VALID,0,VALID,24.2671,VALID,2,VALID,0.882813,
2010-01-18, 03:49:04,VALID,1001.14,VALID,0,VALID,91.9064,VALID,0,VALID,24.2671,VALID,1,VALID,0.961719,
2010-01-18, 03:50:04,VALID,1001.2,VALID,0,VALID,91.9522,VALID,0,VALID,24.2476,VALID,1,VALID,0.737891,
2010-01-18, 03:51:04,VALID,1001.16,VALID,0,VALID,91.9827,VALID,0,VALID,24.2476,VALID,2,VALID,0.541406,
2010-01-18, 03:52:04,VALID,1001.15,VALID,0,VALID,91.9751,VALID,0,VALID,24.2476,VALID,3,VALID,0.694141,
2010-01-18, 03:53:04,VALID,1001.16,VALID,0,VALID,92.0209,VALID,0,VALID,24.2281,VALID,10,VALID,0.727734,
2010-01-18, 03:54:04,VALID,1001.15,VALID,0,VALID,91.9751,VALID,0,VALID,24.2281,VALID,29,VALID,0.638672,